SL-14 R/B, 15100

Orbit data source: Space-Track

SL-14 R/B, 15100 is space debris in LEO originally from a launch on Thu, 05 Jul 1984 UTC launched from the Plesetsk Missile And Space Complex (PKMTR). Debris objects in space refer to the collection of defunct objects orbiting the Earth. Examples of debris include non-operational satellites, rocket bodies, and fragments generated from explosions, collisions, or faulty payload assembly.

Loading next visibility...
SL-14 R/B details
Identifier
15100, 1984-072B
Orbit
LEO
Last TLE update11 hours ago
Origin
Flag of CISGUKOS (CIS)
ManufacturerYuzhnoe
MissionSpacecraft
Bus & MotorS5M, Unknown motor
Mass1,600 kg wet, 1,600 kg dry
Launch date (UTC)
1984-07-05 (40 years ago)
Launch vehicleUnknown
Launch site
Plesetsk Missile And Space Complex (PKMTR)
Object type
Payload
Rocket body
Debris
Shape & HBRCyl, 2.7 m
Radar Cross Section7.351 m², Large (>1 m²)

Expand to show TLE details & history

TLE from 11 hours ago
0 SL-14 R/B
1 15100U 84072B   24361.30171676  .00000071  00000-0  50442-4 0  9992
2 15100  82.5306 113.4972 0011847 183.3829 176.7253 13.84524506 45047
Epoch: 2024-12-26T07:14Z
Definitive object data (Epoch: 2024-12-26T07:14:28.328Z)
Latitude-0.00003°
Longitude-90.40391°
Altitude959.451 km
Speed7.368 km/s
True Right ascension07h 33m 59s
True Declination0° 00' 00"
Sunlit
Object was in full shadow at TLE epoch
Visualization TLE readout
Latitude47.32549°
Longitude-82.62403°
Altitude961.271 km
Speed7.373 km/s
Apparent Right ascension06h 40m 51s
Apparent Declination8° 02' 55"
Sunlit
Object is in full shadow
Visualization observer readout
Local Sidereal Time17:15:04
Azimuth332.614° NNW
Elevation-38.099°
Doppler factor1
Orbital elements
Apogee altitude953.71 km
Perigee altitude936.359 km
Semi-major axis7,323.171 km
Eccentricity0.0011847
Inclination82.5306°
RAAN113.4972°
Arg. of periapsis183.3829°
True anomaly176.73304°
Mean anomaly176.7253°
Eccentric anomaly176.72917°
Mean motion3.46333 °/min
BSTAR0.000050442
Orbital period103.95 mins
Loading maneuver chart data...
Loading historical data...
Loading historical data...
Loading historical data...
Loading historical data...
Loading historical data...
Loading historical data...
Loading historical data...

SL-14 R/B Visibility forecast

Observer location: undefined°, undefined

Span
Click to sort rows by Start time (UTC) header in descending order
Start Az.
Max El. time (UTC)
Max El. Az.
Max El.
End time (UTC)
End Az.
7 mins2024-12-26 18:14:40.111Z31.444° NE2024-12-26 18:17:40.111Z63.72° ENE17.314°2024-12-26 18:21:40.111Z107.593° ESE
10 mins2024-12-26 19:58:40.111Z343.461° N2024-12-26 20:03:40.111Z251.775° W41.643°2024-12-26 20:08:40.111Z188.05° SSW
9 mins2024-12-27 07:38:40.111Z146.71° SSE2024-12-27 07:42:40.111Z94.052° ESE30.504°2024-12-27 07:47:40.111Z28.197° NE
9 mins2024-12-27 09:23:40.111Z232.242° WSW2024-12-27 09:27:40.111Z284.884° WNW27.649°2024-12-27 09:32:40.111Z345.549° N
|